• In Portugal
  • List of Countries
  • For 7 days
  • Water Temperature
  • Satellite Maps
  • Weather Map
  • Weather Widgets
  • user-avatar
    Login

    Hourly Weather Tirana

    Today, 20 August, Monday

    Time Temperature Precipitation Wind Pressure Humidity
    00:00 +25°C° 0 mm 4 mps 753 mmHg 48%
    01:00 +25°C° 0 mm 4 mps 752 mmHg 47%
    02:00 +25°C° 0 mm 4 mps 752 mmHg 47%
    03:00 +23°C° 0 mm 4 mps 752 mmHg 47%
    04:00 +23°C° 0 mm 4 mps 752 mmHg 46%
    05:00 +25°C° 0 mm 3 mps 752 mmHg 46%
    06:00 +26°C° 0 mm 3 mps 752 mmHg 46%
    07:00 +28°C° 0 mm 3 mps 752 mmHg 45%
    08:00 +30°C° 0 mm 3 mps 752 mmHg 40%
    09:00 +32°C° 0 mm 2 mps 752 mmHg 35%
    10:00 +35°C° 0 mm 2 mps 752 mmHg 31%
    11:00 +35°C° 0 mm 2 mps 752 mmHg 29%
    12:00 +36°C° 0 mm 2 mps 752 mmHg 28%
    13:00 +37°C° 0 mm 3 mps 752 mmHg 27%
    14:00 +36°C° 0 mm 3 mps 752 mmHg 30%
    15:00 +34°C° 0 mm 3 mps 751 mmHg 33%
    16:00 +33°C° 0 mm 4 mps 751 mmHg 37%
    17:00 +31°C° 0 mm 3 mps 751 mmHg 40%
    18:00 +30°C° 0 mm 3 mps 751 mmHg 44%
    19:00 +28°C° 0 mm 3 mps 751 mmHg 47%
    20:00 +27°C° 0 mm 3 mps 752 mmHg 50%
    21:00 +26°C° 0 mm 3 mps 752 mmHg 52%
    22:00 +25°C° 0 mm 2 mps 752 mmHg 54%
    23:00 +25°C° 0 mm 2 mps 752 mmHg 55%

    Tomorrow, 21 August, Tuesday

    Time Temperature Precipitation Wind Pressure Humidity
    00:00 +24°C° 0 mm 2 mps 752 mmHg 55%
    01:00 +24°C° 0 mm 2 mps 752 mmHg 56%
    02:00 +24°C° 0 mm 2 mps 752 mmHg 56%
    03:00 +24°C° 0 mm 2 mps 752 mmHg 57%
    04:00 +23°C° 0 mm 2 mps 752 mmHg 57%
    05:00 +25°C° 0 mm 2 mps 752 mmHg 56%
    06:00 +26°C° 0 mm 2 mps 752 mmHg 54%
    07:00 +28°C° 0 mm 2 mps 753 mmHg 52%
    08:00 +30°C° 0 mm 2 mps 753 mmHg 46%
    09:00 +32°C° 0 mm 2 mps 753 mmHg 39%
    10:00 +35°C° 0 mm 2 mps 753 mmHg 33%
    11:00 +35°C° 0 mm 2 mps 752 mmHg 33%
    12:00 +36°C° 0 mm 2 mps 752 mmHg 32%
    13:00 +36°C° 0 mm 3 mps 752 mmHg 32%
    14:00 +35°C° 0.1 mm 3 mps 752 mmHg 35%
    15:00 +34°C° 0.1 mm 3 mps 752 mmHg 38%
    16:00 +33°C° 0.1 mm 3 mps 752 mmHg 42%
    17:00 +31°C° 0 mm 3 mps 752 mmHg 46%
    18:00 +29°C° 0 mm 3 mps 752 mmHg 50%
    19:00 +28°C° 0 mm 2 mps 752 mmHg 55%
    20:00 +27°C° 0 mm 2 mps 753 mmHg 56%
    21:00 +26°C° 0 mm 2 mps 753 mmHg 58%
    22:00 +25°C° 0 mm 2 mps 753 mmHg 59%
    23:00 +25°C° 0 mm 2 mps 753 mmHg 58%

    Day after tomorrow, 22 August, Wednesday

    Time Temperature Precipitation Wind Pressure Humidity
    00:00 +25°C° 0 mm 2 mps 753 mmHg 57%
    01:00 +25°C° 0 mm 2 mps 753 mmHg 56%
    02:00 +25°C° 0 mm 2 mps 753 mmHg 56%
    03:00 +24°C° 0 mm 2 mps 753 mmHg 57%
    04:00 +24°C° 0 mm 2 mps 753 mmHg 57%
    05:00 +25°C° 0 mm 2 mps 753 mmHg 55%
    06:00 +27°C° 0 mm 2 mps 753 mmHg 53%
    07:00 +28°C° 0 mm 2 mps 753 mmHg 51%
    08:00 +30°C° 0 mm 2 mps 753 mmHg 44%
    09:00 +32°C° 0 mm 2 mps 753 mmHg 38%
    10:00 +34°C° 0 mm 1 mps 753 mmHg 32%
    11:00 +36°C° 0 mm 2 mps 753 mmHg 32%
    12:00 +36°C° 0 mm 3 mps 753 mmHg 32%
    13:00 +36°C° 0 mm 3 mps 753 mmHg 32%
    14:00 +35°C° 0 mm 3 mps 753 mmHg 36%
    15:00 +34°C° 0 mm 4 mps 752 mmHg 39%
    16:00 +33°C° 0 mm 4 mps 752 mmHg 43%
    17:00 +31°C° 0 mm 3 mps 752 mmHg 46%
    18:00 +30°C° 0 mm 3 mps 752 mmHg 49%
    19:00 +28°C° 0 mm 2 mps 753 mmHg 52%
    20:00 +28°C° 0 mm 2 mps 753 mmHg 53%
    21:00 +27°C° 0 mm 2 mps 753 mmHg 53%
    22:00 +26°C° 0 mm 2 mps 753 mmHg 54%
    23:00 +26°C° 0 mm 2 mps 753 mmHg 52%

    23 August, Thursday

    Time Temperature Precipitation Wind Pressure Humidity
    00:00 +26°C° 0 mm 2 mps 753 mmHg 50%
    01:00 +25°C° 0 mm 2 mps 753 mmHg 48%
    02:00 +25°C° 0 mm 2 mps 753 mmHg 47%
    03:00 +25°C° 0 mm 2 mps 752 mmHg 46%
    04:00 +25°C° 0 mm 1 mps 752 mmHg 45%
    05:00 +26°C° 0 mm 2 mps 752 mmHg 44%
    06:00 +27°C° 0 mm 2 mps 752 mmHg 43%
    07:00 +28°C° 0 mm 2 mps 752 mmHg 43%
    08:00 +30°C° 0 mm 1 mps 752 mmHg 38%
    09:00 +32°C° 0 mm 1 mps 752 mmHg 34%
    10:00 +35°C° 0 mm 1 mps 752 mmHg 29%
    11:00 +35°C° 0 mm 1 mps 752 mmHg 29%
    12:00 +36°C° 0 mm 2 mps 752 mmHg 28%
    13:00 +37°C° 0 mm 3 mps 751 mmHg 28%
    14:00 +35°C° 0 mm 3 mps 751 mmHg 31%
    15:00 +34°C° 0 mm 4 mps 751 mmHg 35%
    16:00 +33°C° 0 mm 4 mps 751 mmHg 39%
    17:00 +30°C° 0 mm 3 mps 751 mmHg 43%
    18:00 +29°C° 0 mm 2 mps 751 mmHg 48%
    19:00 +27°C° 0 mm 2 mps 751 mmHg 52%
    20:00 +27°C° 0 mm 1 mps 751 mmHg 53%
    21:00 +26°C° 0 mm 1 mps 752 mmHg 54%
    22:00 +26°C° 0 mm 1 mps 752 mmHg 56%
    23:00 +26°C° 0 mm 1 mps 752 mmHg 56%

    24 August, Friday

    Time Temperature Precipitation Wind Pressure Humidity
    00:00 +25°C° 0 mm 1 mps 752 mmHg 56%
    01:00 +25°C° 0 mm 2 mps 751 mmHg 57%
    02:00 +25°C° 0 mm 2 mps 751 mmHg 57%
    03:00 +25°C° 0 mm 2 mps 751 mmHg 57%
    04:00 +24°C° 0 mm 2 mps 751 mmHg 57%
    05:00 +26°C° 0 mm 2 mps 751 mmHg 54%
    06:00 +27°C° 0 mm 2 mps 751 mmHg 52%
    07:00 +28°C° 0 mm 2 mps 751 mmHg 49%
    08:00 +30°C° 0 mm 2 mps 751 mmHg 43%
    09:00 +32°C° 0 mm 2 mps 751 mmHg 37%
    10:00 +35°C° 0 mm 2 mps 751 mmHg 31%
    11:00 +35°C° 0 mm 2 mps 751 mmHg 31%
    12:00 +35°C° 0 mm 3 mps 751 mmHg 30%
    13:00 +36°C° 0 mm 4 mps 750 mmHg 30%
    14:00 +35°C° 0 mm 4 mps 750 mmHg 32%
    15:00 +34°C° 0 mm 3 mps 750 mmHg 35%
    16:00 +34°C° 0 mm 3 mps 750 mmHg 37%
    17:00 +31°C° 0 mm 2 mps 750 mmHg 45%
    18:00 +28°C° 0 mm 2 mps 750 mmHg 52%
    19:00 +26°C° 0 mm 1 mps 750 mmHg 60%
    20:00 +25°C° 0 mm 1 mps 750 mmHg 62%
    21:00 +25°C° 0 mm 2 mps 751 mmHg 63%
    22:00 +24°C° 0 mm 2 mps 751 mmHg 65%
    23:00 +24°C° 0 mm 2 mps 751 mmHg 64%

    25 August, Saturday

    Time Temperature Precipitation Wind Pressure Humidity
    00:00 +24°C° 0 mm 2 mps 750 mmHg 64%
    01:00 +23°C° 0 mm 2 mps 750 mmHg 63%
    02:00 +23°C° 0 mm 2 mps 750 mmHg 62%
    03:00 +23°C° 0 mm 2 mps 750 mmHg 62%
    04:00 +23°C° 0 mm 2 mps 750 mmHg 61%
    05:00 +24°C° 0 mm 2 mps 750 mmHg 58%
    06:00 +26°C° 0 mm 3 mps 750 mmHg 54%
    07:00 +27°C° 0 mm 3 mps 750 mmHg 51%
    08:00 +29°C° 0 mm 3 mps 750 mmHg 46%
    09:00 +30°C° 0 mm 3 mps 750 mmHg 42%
    10:00 +33°C° 0 mm 3 mps 750 mmHg 37%
    11:00 +34°C° 0 mm 3 mps 750 mmHg 36%
    12:00 +34°C° 0 mm 4 mps 750 mmHg 36%
    13:00 +35°C° 0 mm 5 mps 749 mmHg 35%
    14:00 +34°C° 0 mm 5 mps 749 mmHg 38%
    15:00 +34°C° 0 mm 4 mps 749 mmHg 41%
    16:00 +33°C° 0 mm 4 mps 749 mmHg 44%
    17:00 +30°C° 0 mm 4 mps 749 mmHg 52%
    18:00 +28°C° 0 mm 3 mps 749 mmHg 60%
    19:00 +26°C° 0 mm 3 mps 749 mmHg 67%
    20:00 +25°C° 0.1 mm 3 mps 750 mmHg 69%
    21:00 +25°C° 0.1 mm 3 mps 750 mmHg 70%
    22:00 +24°C° 0.1 mm 3 mps 750 mmHg 71%
    23:00 +24°C° 0.5 mm 3 mps 750 mmHg 70%
    Show more